Birmingham, United Kingdom

10:27 PM BST on June 27, 2017 (GMT +0100)
Birmingham

Weather History for EGBB - October, 2013

Change the Weather History Date:

Saturday, October 26, 2013

  Actual Average Record
Temperature  
Mean Temperature 56 °F -  
Max Temperature 60 °F 50 °F 60 °F (2013)
Min Temperature 51 °F 38 °F 24 °F (1997)
Degree Days  
Heating Degree Days 10    
Growing Degree Days 6 (Base 50)    
Moisture  
Dew Point 53 °F    
Average Humidity 85    
Maximum Humidity 100    
Minimum Humidity 72    
Precipitation  
Precipitation 0.00 in 0.08 in - ()
Sea Level Pressure  
Sea Level Pressure 29.53 in    
Wind  
Wind Speed 12 mph ()    
Max Wind Speed 20 mph    
Max Gust Speed 30 mph    
Visibility 6.1 miles    
Events Rain    
Averages and records for this station are not official NWS values.
T = Trace of Precipitation, MM = Missing Value Source: Averaged Metar Reports

Daily Weather History Graph

Daily Weather History Graph

Search for Another Location

Airport or City:

Trip Planner

Search our weather history database for the weather conditions in past years. The results will help you decide how hot, cold, wet, or windy it might be!

Date:

Astronomy

Oct. 26, 2013 Rise Set
Actual Time 7:52 AM BST 5:48 PM BST
Civil Twilight 7:16 AM BST 6:24 PM BST
Nautical Twilight 6:36 AM BST 7:03 PM BST
Astronomical Twilight 5:57 AM BST 7:43 PM BST
Moon 11:45 PM BST (10/26) 2:07 PM BST (10/26)
Length of Visible Light 11h 07m
Length of Day
9h 56m
Waning Gibbous, 55% of the Moon is Illuminated
Oct 26
Waning Gibbous
Oct 27
Last Quarter
Nov 3
New
Nov 10
First Quarter
Nov 17
Full

Hourly Weather History & Observations

Time (BST) Temp. Dew Point Humidity Pressure Visibility Wind Dir Wind Speed Gust Speed Precip Events Conditions
12:20 AM 57.2 °F 53.6 °F 88% 29.62 in 6.2 mi SSW 13.8 mph - N/A   Scattered Clouds
12:50 AM 57.2 °F 53.6 °F 88% 29.62 in 6.2 mi SSW 15.0 mph - N/A   Mostly Cloudy
1:20 AM 57.2 °F 53.6 °F 88% 29.59 in 6.2 mi SSW 12.7 mph - N/A   Scattered Clouds
1:50 AM 55.4 °F 53.6 °F 94% 29.59 in 6.2 mi South 11.5 mph - N/A   Mostly Cloudy
2:20 AM 57.2 °F 53.6 °F 88% 29.59 in 6.2 mi South 12.7 mph - N/A   Mostly Cloudy
2:50 AM 57.2 °F 55.4 °F 94% 29.59 in 6.2 mi SSW 12.7 mph - N/A   Mostly Cloudy
3:20 AM 57.2 °F 53.6 °F 88% 29.59 in 6.2 mi South 12.7 mph - N/A   Overcast
3:50 AM 57.2 °F 53.6 °F 88% 29.59 in 6.2 mi South 11.5 mph - N/A   Overcast
4:20 AM 57.2 °F 53.6 °F 88% 29.59 in 6.2 mi South 11.5 mph - N/A   Mostly Cloudy
4:50 AM 57.2 °F 53.6 °F 88% 29.56 in 6.2 mi South 11.5 mph - N/A   Mostly Cloudy
5:20 AM 57.2 °F 53.6 °F 88% 29.56 in 6.2 mi South 11.5 mph - N/A   Scattered Clouds
5:50 AM 57.2 °F 53.6 °F 88% 29.56 in 6.2 mi SSW 10.4 mph - N/A   Mostly Cloudy
6:20 AM 57.2 °F 53.6 °F 88% 29.56 in 6.2 mi SSW 12.7 mph - N/A   Mostly Cloudy
6:50 AM 57.2 °F 53.6 °F 88% 29.56 in 6.2 mi SSW 11.5 mph - N/A   Mostly Cloudy
7:20 AM 57.2 °F 53.6 °F 88% 29.56 in 6.2 mi South 8.1 mph - N/A   Mostly Cloudy
7:50 AM 57.2 °F 55.4 °F 94% 29.56 in 6.2 mi South 10.4 mph - N/A   Mostly Cloudy
8:20 AM 59.0 °F 55.4 °F 88% 29.56 in 6.2 mi South 11.5 mph - N/A   Mostly Cloudy
8:50 AM 59.0 °F 55.4 °F 88% 29.56 in 6.2 mi South 12.7 mph - N/A   Mostly Cloudy
9:20 AM 59.0 °F 55.4 °F 88% 29.59 in 6.2 mi SSW 13.8 mph - N/A   Mostly Cloudy
9:50 AM 59.0 °F 55.4 °F 88% 29.59 in 6.2 mi SSW 15.0 mph - N/A   Mostly Cloudy
10:20 AM 59.0 °F 55.4 °F 88% 29.59 in 6.2 mi SSW 11.5 mph - N/A   Mostly Cloudy
10:50 AM 59.0 °F 55.4 °F 88% 29.59 in 6.2 mi SW 13.8 mph - N/A   Mostly Cloudy
11:20 AM 57.2 °F 55.4 °F 94% 29.59 in 6.2 mi SW 9.2 mph - N/A   Mostly Cloudy
11:50 AM 60.8 °F 55.4 °F 82% 29.59 in 6.2 mi SW 15.0 mph - N/A   Mostly Cloudy
12:20 PM 60.8 °F 53.6 °F 77% 29.59 in 6.2 mi SW 16.1 mph - N/A   Mostly Cloudy
12:50 PM 60.8 °F 51.8 °F 72% 29.56 in 6.2 mi SSW 17.3 mph - N/A   Mostly Cloudy
1:20 PM 59.0 °F 51.8 °F 77% 29.56 in 6.2 mi SSW 16.1 mph - N/A   Mostly Cloudy
1:50 PM 59.0 °F 51.8 °F 77% 29.56 in 6.2 mi SW 16.1 mph 28.8 mph N/A   Mostly Cloudy
2:20 PM 59.0 °F 50.0 °F 72% 29.56 in 6.2 mi SSW 19.6 mph - N/A   Mostly Cloudy
2:50 PM 59.0 °F 50.0 °F 72% 29.56 in 6.2 mi SSW 15.0 mph - N/A   Mostly Cloudy
3:20 PM 59.0 °F 50.0 °F 72% 29.56 in 6.2 mi SSW 13.8 mph 27.6 mph N/A   Mostly Cloudy
3:50 PM 59.0 °F 51.8 °F 77% 29.56 in 6.2 mi South 12.7 mph - N/A   Mostly Cloudy
4:20 PM 57.2 °F 51.8 °F 82% 29.53 in 6.2 mi SSW 15.0 mph 26.5 mph N/A   Scattered Clouds
4:50 PM 57.2 °F 51.8 °F 82% 29.53 in 6.2 mi South 11.5 mph - N/A   Partly Cloudy
5:20 PM 57.2 °F 50.0 °F 77% 29.50 in 6.2 mi South 13.8 mph - N/A   Partly Cloudy
5:50 PM 57.2 °F 50.0 °F 77% 29.50 in - South 15.0 mph - N/A   Clear
6:20 PM 57.2 °F 50.0 °F 77% 29.47 in - South 12.7 mph - N/A   Clear
6:50 PM 57.2 °F 51.8 °F 82% 29.47 in 6.2 mi South 16.1 mph - N/A   Scattered Clouds
7:20 PM 57.2 °F 50.0 °F 77% 29.44 in 6.2 mi South 17.3 mph - N/A   Scattered Clouds
7:50 PM 57.2 °F 50.0 °F 77% 29.44 in 6.2 mi South 15.0 mph - N/A   Scattered Clouds
8:20 PM 57.2 °F 51.8 °F 82% 29.42 in 6.2 mi South 17.3 mph - N/A Rain Light Rain
8:50 PM 55.4 °F 53.6 °F 94% 29.42 in 5.6 mi South 17.3 mph - N/A Rain Light Rain
9:20 PM 55.4 °F 53.6 °F 94% 29.39 in 4.3 mi South 16.1 mph 29.9 mph N/A Rain Light Rain
9:50 PM 51.8 °F 51.8 °F 100% 29.42 in 5.0 mi SW 11.5 mph - N/A Rain Rain
10:20 PM 51.8 °F 50.0 °F 94% 29.42 in 6.2 mi WSW 9.2 mph - N/A   Scattered Clouds
10:50 PM 51.8 °F 50.0 °F 94% 29.42 in 6.2 mi SSW 8.1 mph - N/A   Partly Cloudy
11:20 PM 51.8 °F 48.2 °F 88% 29.42 in 6.2 mi SW 10.4 mph - N/A   Scattered Clouds
11:50 PM 51.8 °F 48.2 °F 88% 29.42 in 6.2 mi SSW 9.2 mph - N/A   Partly Cloudy